Погода в Илеке-Кошарах

Россия / Белгородская область     50°54′00″N   35°36′46″E
темп.,
°C
ветер,
м/с
пор.,
м/с
влажн.,
%
обл.,
%
осадки,
мм/ч
давл.,
гПа
погр.,
м
21 апреля, ср
ср2100:00+6с5893100 1.7 1004392
03:00+5ссз4693100 2.0 1005385
06:00+5сз3592100 0.0 1007398
09:00+6зсз2384100 0.0 1009481
12:00+6зюз3586100 0.1 1011707
15:00+7з4685100 0.2 1012675
18:00+5зюз4892100 0.1 1014587
21:00+4з119113 0.1 101611
22 апреля, чт
чт2200:00+4ю349126 0.0 101650
03:00+4ююз359214 0.0 101785
06:00+4ююз379129 0.0 1018132
09:00+10ююз596851 0.0 1019454
12:00+14ююз685532 0.0 10191442
15:00+16юз684870 0.6 10182229
18:00+13ююз496694 0.3 1018306
21:00+11ю4970100 0.3 1019172
23 апреля, пт
пт2300:00+11ю51170100 0.1 1018299
03:00+9ю5127738 0.1 1018270
06:00+8ю5118441 0.0 1017235
09:00+12ю712665 0.0 1017771
12:00+15ююз8105915 0.3 10151502
15:00+16ююз8125294 2.3 10132172
18:00+12юз81279100 2.7 1013835
21:00+8зсз2395100 6.4 1013275
24 апреля, сб
сб2400:00+6сз4692100 1.6 1012522
03:00+3сз51096100 7.9 1013555
06:00+4з479189 0.6 1013631
09:00+6з567336 0.8 10131001
12:00+9з67515 0.4 10141842
15:00+8зюз7755100 0.8 10141567
18:00+8зюз4558100 0.1 10131017
21:00+5зюз4881100 0.3 1014245
25 апреля, вс
вс2500:00+3з489375 0.3 1015276
03:00+3з4988100 0.4 1015337
06:00+1зюз48925 0.0 1016261
09:00+5зюз57738 0.0 1016847
12:00+7з685992 1.1 10161734
15:00+8з6953100 2.3 10162091
18:00+7з7106694 0.5 10161295
21:00+3зюз48775 0.8 1017203